GW3217 Weather Reports


Display with metric or nautical units.
time (UTC)temp
F
wind
direction
speed
MPH
gust
MPH
rain 1hr
in
rain 24hr
in
rain mn
in
humidity
%
barometer
mb
20260903141410 68 296 2.0 2.0 0.00 0.41 0.41 99 1017.6
20260903140906 68 317 0.0 0.0 0.00 0.41 0.41 99 1017.7
20260903140401 68 303 0.0 0.0 0.00 0.41 0.41 99 1017.3
20260903135856 68 311 1.0 1.0 0.00 0.41 0.41 99 1017.6
20260903135352 68 323 0.0 0.0 0.00 0.41 0.41 99 1017.6
20260903134850 67 314 0.0 0.0 0.00 0.41 0.41 99 1017.5
20260903134346 67 321 0.0 0.0 0.00 0.41 0.41 99 1017.4
20260903133843 67 315 0.0 0.0 0.00 0.41 0.41 99 1017.8
20260903133340 67 321 0.0 0.0 0.00 0.41 0.41 99 1017.7
20260903132834 67 319 0.0 0.0 0.00 0.41 0.41 99 1017.9
20260903132330 66 318 0.0 0.0 0.00 0.41 0.41 99 1017.7
20260903131825 67 321 0.0 0.0 0.00 0.41 0.41 99 1017.6
20260903131324 67 312 0.0 0.0 0.00 0.41 0.41 99 1017.7
20260903130823 67 316 0.0 0.0 0.00 0.41 0.41 99 1017.8
20260903130318 67 319 0.0 0.0 0.00 0.41 0.41 99 1017.8
20260903125817 67 317 0.0 0.0 0.00 0.41 0.41 99 1017.7
20260903125313 67 324 0.0 0.0 0.00 0.41 0.41 99 1018.1
20260903124812 66 319 0.0 0.0 0.00 0.41 0.41 99 1018.2
20260903124308 66 321 0.0 0.0 0.00 0.41 0.41 99 1018.1
20260903123806 66 324 0.0 0.0 0.00 0.41 0.41 99 1018.1
20260903123306 66 317 0.0 0.0 0.00 0.41 0.41 99 1018.0
20260903122804 66 326 0.0 0.0 0.00 0.41 0.41 99 1018.2
20260903122259 66 324 0.0 0.0 0.00 0.41 0.41 99 1018.0
20260903121757 66 322 0.0 0.0 0.00 0.41 0.41 99 1018.0
20260903121253 66 322 0.0 0.0 0.00 0.41 0.41 99 1018.1
20260903120749 66 323 0.0 0.0 0.00 0.41 0.41 99 1018.1
20260903120242 66 324 0.0 0.0 0.00 0.41 0.41 99 1018.2
20260903115740 65 325 0.0 0.0 0.00 0.41 0.41 99 1018.3
20260903115236 65 320 0.0 0.0 0.00 0.41 0.41 99 1018.5
20260903114730 65 327 0.0 0.0 0.00 0.41 0.41 99 1018.7
20260903114226 65 335 0.0 0.0 0.00 0.41 0.41 99 1018.4
20260903113721 65 321 0.0 0.0 0.00 0.41 0.41 99 1018.7
20260903113217 65 323 0.0 0.0 0.00 0.41 0.41 99 1018.7
20260903112713 65 324 0.0 0.0 0.00 0.41 0.41 99 1018.5
20260903112208 65 326 0.0 0.0 0.00 0.41 0.41 99 1018.7
20260903111706 65 328 0.0 0.0 0.00 0.41 0.41 99 1018.8
20260903111202 65 324 0.0 0.0 0.00 0.41 0.41 99 1018.4
20260903110653 65 319 0.0 0.0 0.00 0.41 0.41 99 1018.7
20260903110148 65 326 0.0 0.0 0.00 0.41 0.41 99 1018.3
20260903105642 65 334 0.0 0.0 0.00 0.41 0.41 99 1018.5
20260903105138 65 325 0.0 0.0 0.00 0.41 0.41 99 1018.4
20260903104637 65 319 0.0 0.0 0.00 0.41 0.41 99 1018.5
20260903104133 65 319 0.0 0.0 0.05 0.41 0.41 99 1018.7
20260903103628 65 318 0.0 0.0 0.05 0.41 0.41 99 1018.4
20260903103125 65 320 0.0 0.0 0.00 0.40 0.40 99 1018.4
20260903102620 65 329 0.0 0.0 0.00 0.40 0.40 99 1018.5
20260903102119 65 315 0.0 0.0 0.00 0.40 0.40 99 1018.3
20260903101618 65 305 0.0 0.0 0.00 0.40 0.40 99 1018.1
20260903101114 65 318 0.0 0.0 0.00 0.40 0.40 99 1018.1
20260903100609 65 318 0.0 0.0 0.00 0.40 0.40 99 1018.0
20260903100108 65 317 0.0 0.0 0.00 0.40 0.40 99 1017.8
20260903095606 65 317 0.0 0.0 0.00 0.40 0.40 99 1017.9
20260903095106 65 318 0.0 0.0 0.00 0.40 0.40 99 1017.9
20260903094606 65 313 0.0 0.0 0.00 0.40 0.40 99 1017.8
20260903094102 65 316 0.0 0.0 0.00 0.40 0.40 99 1018.0
20260903093556 65 317 0.0 0.0 0.00 0.40 0.40 99 1017.8
20260903093052 65 315 0.0 0.0 0.00 0.40 0.40 99 1018.0
20260903092551 65 315 0.0 0.0 0.00 0.40 0.40 99 1017.9
20260903092046 65 320 0.0 0.0 0.00 0.40 0.40 99 1018.0
20260903091544 65 323 0.0 0.0 0.00 0.40 0.40 99 1017.9
20260903091039 65 321 0.0 0.0 0.00 0.40 0.40 99 1018.1
20260903090535 65 319 0.0 0.0 0.00 0.40 0.40 99 1018.1
20260903090033 65 323 0.0 0.0 0.00 0.40 0.40 99 1018.2
20260903085532 65 318 0.0 0.0 0.00 0.40 0.40 99 1018.2
20260903085028 65 319 0.0 0.0 0.00 0.40 0.40 99 1018.0
20260903084526 65 325 0.0 0.0 0.00 0.40 0.40 99 1018.0
20260903084021 65 314 0.0 0.0 0.00 0.40 0.40 99 1017.8
20260903083517 65 319 0.0 0.0 0.00 0.40 0.40 99 1018.2
20260903083016 65 319 0.0 0.0 0.00 0.40 0.40 99 1018.2
20260903082511 65 319 0.0 0.0 0.00 0.40 0.40 99 1018.1
20260903082006 65 321 0.0 0.0 0.00 0.40 0.40 99 1018.0
20260903081501 64 330 0.0 0.0 0.00 0.40 0.40 99 1018.3
20260903080957 64 316 0.0 1.0 0.00 0.40 0.40 99 1018.1
20260903080453 64 328 0.0 0.0 0.00 0.40 0.40 99 1018.4
20260903075949 64 322 0.0 0.0 0.00 0.40 0.40 99 1018.3
20260903075444 64 290 0.0 1.0 0.00 0.40 0.40 99 1018.5
20260903074940 64 324 0.0 0.0 0.00 0.40 0.40 99 1018.3
20260903074438 64 334 0.0 1.0 0.07 0.40 0.40 99 1018.2
20260903073934 64 26 1.0 2.0 0.07 0.40 0.40 99 1018.4
20260903073429 64 326 0.0 0.0 0.00 0.39 0.39 99 1018.7
20260903072925 64 324 0.0 0.0 0.00 0.39 0.39 99 1018.9
20260903072421 64 319 0.0 0.0 0.00 0.39 0.39 99 1018.9
20260903071917 64 322 0.0 0.0 0.00 0.39 0.39 99 1019.1
20260903071413 64 322 0.0 0.0 0.00 0.39 0.39 99 1019.1
20260903070909 64 319 0.0 0.0 0.00 0.39 0.39 99 1018.8
20260903070403 64 333 0.0 0.0 0.00 0.39 0.39 99 1018.9
20260903065858 64 324 0.0 0.0 0.00 0.39 0.39 99 1018.9
20260903065357 64 315 0.0 1.0 0.00 0.39 0.39 99 1018.9
20260903064856 64 353 0.0 0.0 0.00 0.39 0.39 99 1018.9
20260903064352 64 319 0.0 0.0 0.00 0.39 0.39 99 1019.0
20260903063848 64 318 0.0 0.0 0.00 0.39 0.39 99 1019.1
20260903063343 64 336 0.0 0.0 0.00 0.39 0.39 99 1018.8
20260903062838 64 82 1.0 2.0 0.00 0.39 0.39 99 1018.4
20260903062338 64 328 0.0 0.0 0.00 0.39 0.39 99 1018.7
20260903061834 64 318 0.0 0.0 0.00 0.39 0.39 99 1018.5
20260903061333 64 314 0.0 0.0 0.00 0.39 0.39 99 1019.0
20260903060829 64 310 0.0 0.0 0.00 0.39 0.39 99 1018.9
20260903060323 64 327 0.0 0.0 0.00 0.39 0.39 99 1019.2
20260903055821 64 317 0.0 0.0 0.00 0.39 0.39 99 1019.2
20260903055319 64 321 0.0 0.0 0.05 0.39 0.39 99 1019.6
20260903054814 64 348 0.0 0.0 0.05 0.39 0.39 99 1019.6
20260903054308 64 332 0.0 0.0 0.07 0.38 0.38 99 1020.1
20260903053805 64 318 0.0 0.0 0.14 0.38 0.38 99 1020.1
20260903053301 64 319 0.0 0.0 0.12 0.37 0.37 99 1019.9
20260903052755 64 41 2.0 3.0 0.17 0.36 0.36 99 1019.9
20260903052251 64 338 0.0 0.0 0.24 0.35 0.35 99 1020.2
20260903051746 64 331 0.0 0.0 0.24 0.33 0.33 99 1020.5
20260903051241 64 326 0.0 0.0 0.38 0.31 0.31 99 1021.0
20260903050736 64 351 1.0 2.0 0.38 0.29 0.29 99 1021.0
20260903050231 64 322 0.0 0.0 0.47 0.26 0.26 99 1021.3
20260903045726 64 325 0.0 0.0 0.90 0.23 0.23 99 1021.6
20260903045222 64 323 0.0 0.0 0.94 0.17 0.17 99 1022.0
20260903044718 64 320 0.0 0.0 0.59 0.10 0.10 99 1021.8
20260903044213 63 307 0.0 1.0 0.12 0.02 0.02 99 1022.2
20260903043710 63 307 1.0 2.0 0.00 0.00 0.00 99 1022.0
20260903043209 63 315 0.0 0.0 0.00 0.00 0.00 99 1021.5
20260903042708 63 323 0.0 0.0 0.00 0.00 0.00 99 1021.1
20260903042203 63 321 0.0 0.0 0.00 0.00 0.00 99 1021.1
20260903041659 63 325 0.0 0.0 0.00 0.00 0.00 99 1021.4
20260903041154 63 310 0.0 0.0 0.00 0.00 0.00 99 1021.1
20260903040654 63 334 0.0 0.0 0.00 0.00 0.00 99 1021.1
20260903040150 63 323 0.0 0.0 0.00 0.00 0.00 99 1021.3
20260903035645 63 327 0.0 0.0 0.00 0.17 0.17 99 1021.5
20260903035142 63 328 0.0 0.0 0.00 0.17 0.17 99 1021.2
20260903034636 63 332 0.0 0.0 0.00 0.17 0.17 99 1021.3
20260903034131 63 317 0.0 0.0 0.00 0.17 0.17 99 1021.5
20260903033627 63 322 0.0 0.0 0.00 0.17 0.17 99 1021.7
20260903033126 63 325 0.0 0.0 0.00 0.17 0.17 99 1021.4
20260903032622 63 332 0.0 0.0 0.00 0.17 0.17 99 1021.5
20260903032117 63 319 0.0 0.0 0.00 0.17 0.17 99 1021.5
20260903031612 63 314 0.0 0.0 0.00 0.17 0.17 99 1021.0
20260903031101 63 313 0.0 0.0 0.00 0.17 0.17 99 1020.8
20260903030556 63 321 0.0 0.0 0.00 0.17 0.17 99 1020.9
20260903030053 63 327 0.0 0.0 0.00 0.17 0.17 99 1021.2
20260903025548 63 322 0.0 0.0 0.00 0.17 0.17 99 1021.5
20260903025043 63 318 0.0 0.0 0.00 0.17 0.17 99 1021.6
20260903024542 63 316 0.0 0.0 0.00 0.17 0.17 99 1021.5
20260903024032 63 323 0.0 0.0 0.00 0.17 0.17 99 1021.8
20260903023527 63 316 0.0 0.0 0.00 0.17 0.17 99 1021.8
20260903023023 63 314 0.0 0.0 0.00 0.17 0.17 99 1022.0
20260903022521 63 322 0.0 0.0 0.00 0.17 0.17 99 1021.7
20260903022020 63 313 0.0 0.0 0.00 0.17 0.17 99 1021.8
20260903021516 63 315 0.0 0.0 0.00 0.17 0.17 99 1022.2
20260903021010 63 318 0.0 0.0 0.00 0.17 0.17 99 1022.1
20260903020506 63 332 0.0 0.0 0.00 0.17 0.17 99 1022.0
20260903020005 63 315 0.0 0.0 0.00 0.17 0.17 99 1022.1
20260903015501 63 344 0.0 0.0 0.00 0.17 0.17 99 1022.0
20260903014956 63 316 0.0 0.0 0.00 0.17 0.17 99 1022.1
20260903014456 63 312 0.0 0.0 0.00 0.17 0.17 99 1022.1
20260903013951 63 321 0.0 0.0 0.00 0.17 0.17 99 1022.2
20260903013451 63 316 0.0 0.0 0.00 0.17 0.17 99 1022.2
20260903012950 63 310 0.0 0.0 0.00 0.17 0.17 99 1022.1
20260903012449 63 318 0.0 0.0 0.00 0.17 0.17 99 1022.1
20260903011948 63 299 0.0 0.0 0.00 0.17 0.17 99 1022.1
20260903011443 63 348 0.0 0.0 0.00 0.17 0.17 99 1022.4
20260903010938 63 317 0.0 0.0 0.00 0.17 0.17 99 1022.3
20260903010434 63 299 0.0 0.0 0.00 0.17 0.17 99 1022.5
20260903005931 63 294 0.0 0.0 0.00 0.17 0.17 99 1022.2
20260903005427 63 281 0.0 0.0 0.00 0.17 0.17 99 1022.2
20260903004924 63 316 0.0 0.0 0.00 0.17 0.17 99 1022.2
20260903004418 63 308 0.0 0.0 0.00 0.17 0.17 99 1022.2
20260903003914 63 317 0.0 0.0 0.00 0.17 0.17 99 1021.9
20260903003414 63 320 0.0 0.0 0.00 0.17 0.17 99 1022.2
20260903002913 63 309 0.0 0.0 0.00 0.17 0.17 99 1022.3
20260903002408 63 315 0.0 0.0 0.00 0.17 0.17 99 1022.4
20260903001903 63 326 0.0 0.0 0.00 0.17 0.17 99 1022.4
20260903001357 63 318 0.0 0.0 0.00 0.17 0.17 99 1022.2
20260903000852 63 325 0.0 0.0 0.00 0.17 0.17 99 1022.4
20260903000347 63 316 0.0 0.0 0.00 0.17 0.17 99 1022.4
20260902235845 63 318 0.0 0.0 0.00 0.17 0.17 99 1022.1
20260902235340 63 315 0.0 0.0 0.00 0.17 0.17 99 1021.7
20260902234840 63 318 0.0 0.0 0.00 0.17 0.17 99 1021.8
20260902234335 63 315 0.0 0.0 0.00 0.17 0.17 99 1021.6
20260902233833 63 305 0.0 0.0 0.00 0.17 0.17 99 1021.6
20260902233333 63 314 0.0 0.0 0.00 0.17 0.17 99 1021.8
20260902232832 63 317 0.0 0.0 0.00 0.17 0.17 99 1022.2
20260902232327 63 317 0.0 0.0 0.00 0.17 0.17 99 1022.0
20260902231821 63 312 0.0 0.0 0.00 0.17 0.17 99 1022.0
20260902231316 63 309 0.0 0.0 0.00 0.17 0.17 99 1022.2
20260902230811 63 303 0.0 0.0 0.00 0.17 0.17 99 1022.5
20260902230310 63 316 0.0 0.0 0.00 0.17 0.17 99 1022.4
20260902225805 63 315 0.0 0.0 0.00 0.17 0.17 99 1022.2
20260902225300 63 316 0.0 0.0 0.00 0.17 0.17 99 1022.2
20260902224758 63 316 1.0 1.0 0.00 0.17 0.17 99 1022.5
20260902224253 63 255 1.0 2.0 0.00 0.17 0.17 99 1022.4
20260902223749 63 296 1.0 1.0 0.00 0.17 0.17 99 1022.3
20260902223249 63 320 0.0 0.0 0.00 0.17 0.17 99 1022.9
20260902222742 63 328 0.0 0.0 0.00 0.17 0.17 99 1022.9
20260902222236 63 242 2.0 2.0 0.00 0.17 0.17 99 1023.0
20260902221736 63 321 0.0 0.0 0.00 0.17 0.17 99 1023.1
20260902221236 63 316 0.0 0.0 0.00 0.17 0.17 99 1023.1
20260902220726 63 314 0.0 0.0 0.00 0.17 0.17 99 1023.5
20260902220226 63 318 0.0 0.0 0.00 0.17 0.17 99 1023.5
20260902215721 63 323 0.0 0.0 0.00 0.17 0.17 99 1023.2
20260902215216 64 317 0.0 0.0 0.00 0.17 0.17 99 1023.3
20260902214712 64 317 0.0 0.0 0.00 0.17 0.17 99 1023.3
20260902214210 64 318 0.0 0.0 0.00 0.17 0.17 99 1023.2
20260902213706 64 305 1.0 1.0 0.00 0.17 0.17 99 1023.1
20260902213201 64 231 2.0 2.0 0.00 0.17 0.17 99 1022.8
20260902212655 64 320 0.0 0.0 0.00 0.17 0.17 99 1022.7
20260902212152 64 2 0.0 1.0 0.00 0.17 0.17 99 1022.9
20260902211648 64 320 1.0 1.0 0.00 0.17 0.17 99 1022.8
20260902211143 64 329 0.0 0.0 0.00 0.17 0.17 99 1023.1
20260902210642 64 199 0.0 1.0 0.00 0.17 0.17 99 1023.0
20260902210137 64 308 0.0 1.0 0.00 0.17 0.17 99 1022.9
20260902205636 64 275 1.0 2.0 0.00 0.17 0.17 99 1022.8
20260902205131 64 312 0.0 0.0 0.00 0.17 0.17 99 1022.9
20260902204626 64 299 2.0 3.0 0.00 0.17 0.17 99 1023.1
20260902204121 64 322 0.0 0.0 0.00 0.17 0.17 99 1022.9
20260902203617 64 309 0.0 1.0 0.00 0.17 0.17 99 1022.7
20260902203116 64 317 0.0 0.0 0.00 0.17 0.17 99 1022.7
20260902202612 64 55 1.0 2.0 0.00 0.17 0.17 99 1022.5
20260902202108 64 242 0.0 1.0 0.00 0.17 0.17 99 1022.7
20260902201603 64 343 0.0 0.0 0.00 0.17 0.17 99 1022.8
20260902201057 64 328 0.0 0.0 0.00 0.17 0.17 99 1023.1
20260902200552 64 306 0.0 0.0 0.00 0.17 0.17 99 1023.0
20260902200048 64 287 0.0 1.0 0.00 0.17 0.17 99 1023.2
20260902195544 64 316 0.0 0.0 0.00 0.17 0.17 99 1023.0
20260902195042 64 293 2.0 2.0 0.00 0.17 0.17 99 1022.8
20260902194542 63 318 0.0 0.0 0.00 0.17 0.17 99 1022.7
20260902194038 63 322 1.0 1.0 0.00 0.17 0.17 99 1022.8
20260902193534 63 319 0.0 0.0 0.00 0.17 0.17 99 1023.1
20260902193033 62 319 0.0 0.0 0.00 0.17 0.17 99 1023.1
20260902192532 62 313 0.0 1.0 0.00 0.17 0.17 99 1022.9
20260902192030 62 318 0.0 0.0 0.00 0.17 0.17 99 1023.3
20260902191526 62 316 0.0 0.0 0.00 0.17 0.17 99 1023.2
20260902191021 62 330 0.0 1.0 0.00 0.17 0.17 99 1023.2
20260902190516 62 293 0.0 0.0 0.07 0.17 0.17 99 1023.1
20260902190012 63 320 0.0 0.0 0.12 0.17 0.17 99 1023.2
20260902185508 63 314 0.0 0.0 0.05 0.16 0.16 99 1023.2
20260902185003 62 285 0.0 1.0 0.17 0.16 0.16 99 1023.4
20260902184458 62 315 0.0 0.0 0.24 0.15 0.15 99 1023.5
20260902183953 62 328 0.0 0.0 0.24 0.13 0.13 99 1023.8
20260902183450 63 324 0.0 0.0 0.35 0.12 0.12 99 1024.1
20260902182946 63 320 0.0 0.0 0.38 0.09 0.09 99 1024.1
20260902182442 63 321 0.0 0.0 0.19 0.05 0.05 98 1024.6
20260902181937 63 322 0.0 0.0 0.05 0.03 0.03 97 1024.6
20260902181433 63 294 2.0 2.0 0.00 0.02 0.02 95 1024.8
20260902180927 64 306 0.0 0.0 0.00 0.02 0.02 95 1024.1
20260902180422 64 314 0.0 0.0 0.00 0.02 0.02 94 1023.4
20260902175917 64 315 0.0 0.0 0.00 0.02 0.02 94 1023.6
20260902175412 64 315 0.0 0.0 0.00 0.02 0.02 93 1023.6
20260902174908 64 313 0.0 0.0 0.00 0.02 0.02 93 1023.6
20260902174405 64 319 0.0 0.0 0.00 0.02 0.02 94 1023.6
20260902173854 64 306 0.0 0.0 0.00 0.02 0.02 93 1023.6
20260902173354 64 315 0.0 0.0 0.00 0.02 0.02 93 1023.7
20260902172848 64 323 0.0 0.0 0.00 0.02 0.02 93 1023.6
20260902172342 64 318 1.0 1.0 0.00 0.02 0.02 93 1023.6
20260902171838 64 327 0.0 1.0 0.00 0.02 0.02 93 1023.8
20260902171333 64 315 0.0 1.0 0.00 0.02 0.02 93 1023.8
20260902170829 64 202 0.0 1.0 0.00 0.02 0.02 93 1023.7
20260902170324 64 314 0.0 1.0 0.00 0.02 0.02 93 1023.7
20260902165820 64 331 0.0 0.0 0.00 0.02 0.02 93 1023.8
20260902165319 64 313 0.0 0.0 0.00 0.02 0.02 94 1024.1
20260902164814 64 311 0.0 0.0 0.00 0.02 0.02 93 1023.8
20260902164308 64 277 0.0 0.0 0.00 0.02 0.02 92 1023.9
20260902163757 64 33 1.0 2.0 0.00 0.02 0.02 92 1023.8
20260902163257 65 315 0.0 0.0 0.00 0.02 0.02 93 1024.1
20260902162750 65 332 0.0 0.0 0.00 0.02 0.02 92 1023.7
20260902162245 65 270 0.0 0.0 0.00 0.02 0.02 92 1023.8
20260902161740 65 283 0.0 0.0 0.00 0.02 0.02 93 1023.7
20260902161235 64 3 2.0 2.0 0.00 0.02 0.02 92 1023.8
20260902160732 64 307 0.0 0.0 0.00 0.02 0.02 92 1023.9
20260902160226 64 323 0.0 1.0 0.00 0.02 0.02 92 1023.7
20260902155724 64 291 0.0 1.0 0.00 0.02 0.02 92 1024.0
20260902155223 64 308 1.0 1.0 0.00 0.02 0.02 92 1023.9
20260902154719 64 357 0.0 0.0 0.00 0.02 0.02 92 1023.7
20260902154219 64 169 1.0 1.0 0.00 0.02 0.02 92 1023.7
20260902153718 64 306 1.0 1.0 0.00 0.02 0.02 93 1023.8
20260902153212 64 248 1.0 2.0 0.00 0.02 0.02 92 1023.7
20260902152709 64 331 0.0 0.0 0.00 0.02 0.02 93 1023.8
20260902152204 64 316 0.0 0.0 0.00 0.02 0.02 94 1024.1
20260902151659 64 297 1.0 1.0 0.00 0.02 0.02 92 1024.0
20260902151200 64 317 1.0 1.0 0.00 0.02 0.02 92 1023.7
20260902150655 64 325 1.0 2.0 0.00 0.02 0.02 92 1023.8
20260902150150 64 316 1.0 1.0 0.00 0.02 0.02 93 1024.1
20260902145649 64 325 1.0 1.0 0.00 0.02 0.02 92 1023.9
20260902145144 64 320 0.0 1.0 0.00 0.02 0.02 91 1024.1
20260902144641 64 297 1.0 2.0 0.00 0.02 0.02 92 1023.9
20260902144136 64 322 1.0 1.0 0.00 0.02 0.02 92 1024.1
20260902143631 63 329 1.0 2.0 0.00 0.02 0.02 93 1023.8
20260902143126 63 306 2.0 2.0 0.00 0.02 0.02 93 1023.9
20260902142622 63 246 2.0 3.0 0.00 0.02 0.02 93 1024.1
20260902142118 63 304 0.0 1.0 0.00 0.02 0.02 94 1024.1
20260902141617 63 325 0.0 0.0 0.00 0.02 0.02 94 1023.9